Location: Artiguedieu
(43.5000°N, 0.5454°E)
Time: 09:52:38
(UTC+00:00)

Explorer 7 - Pass Details

Date: 01 August 2021
Orbit: 484 x 676 km, 50.3° (Epoch: 22 September)

Event Time Altitude Azimuth Distance (km) Brightness Sun altitude
Rises 10:14:49 0° 299° (WNW) 2,700 10.0 55.6°
Reaches altitude 10° 10:17:00 10° 299° (WNW) 1,836 9.3 55.9°
Maximum altitude 10:21:11 89° 10° (N) 585 8.1 56.4°
Drops below altitude 10° 10:25:40 10° 120° (ESE) 1,953 10.3 57.0°
Sets 10:28:02 0° 121° (ESE) 2,888 11.0 57.3°
